| time (UTC) | temp F | wind direction | speed MPH | gust MPH | rain 1hr in | rain 24hr in | rain mn in | humidity % | barometer mb |
| 20260503200053 | 79 | 331 | 2.0 | 5.0 | 0.00 | 0.00 | 0.00 | 43 | 1010.9 |
| 20260503194600 | 78 | 352 | 1.0 | 10.0 | 0.00 | 0.00 | 0.00 | 46 | 1011.0 |
| 20260503193108 | 77 | 331 | 1.0 | 4.0 | 0.00 | 0.00 | 0.00 | 48 | 1011.2 |
| 20260503191554 | 76 | 329 | 1.0 | 4.0 | 0.00 | 0.00 | 0.00 | 49 | 1011.3 |
| 20260503190108 | 75 | 331 | 1.0 | 8.0 | 0.00 | 0.00 | 0.00 | 51 | 1011.5 |
| 20260503184601 | 73 | 336 | 2.0 | 8.0 | 0.00 | 0.00 | 0.00 | 51 | 1011.6 |
| 20260503183110 | 72 | 335 | 1.0 | 4.0 | 0.00 | 0.00 | 0.00 | 54 | 1011.8 |
| 20260503181558 | 71 | 322 | 1.0 | 4.0 | 0.00 | 0.00 | 0.00 | 56 | 1011.9 |
| 20260503180058 | 70 | 333 | 2.0 | 5.0 | 0.00 | 0.00 | 0.00 | 54 | 1011.8 |
| 20260503174554 | 70 | 342 | 1.0 | 6.0 | 0.00 | 0.00 | 0.00 | 55 | 1011.8 |
| 20260503173113 | 69 | 9 | 1.0 | 4.0 | 0.00 | 0.00 | 0.00 | 59 | 1012.0 |
| 20260503171555 | 67 | 318 | 1.0 | 3.0 | 0.00 | 0.00 | 0.00 | 64 | 1012.2 |
| 20260503150138 | 54 | 0 | 0.0 | 0.0 | 0.00 | 0.00 | 0.00 | 94 | 1012.7 |
| 20260503140113 | 49 | 0 | 0.0 | 0.0 | 0.00 | 0.00 | 0.00 | 98 | 1012.6 |
| 20260503110104 | 48 | 105 | 1.0 | 4.0 | 0.00 | 0.00 | 0.00 | 97 | 1012.5 |
| 20260503100107 | 49 | 116 | 1.0 | 3.0 | 0.00 | 0.00 | 0.00 | 96 | 1012.8 |
| 20260503081615 | 51 | 106 | 2.0 | 4.0 | 0.00 | 0.03 | 0.00 | 96 | 1013.0 |
| 20260503071609 | 53 | 113 | 0.0 | 3.0 | 0.00 | 0.03 | 0.00 | 95 | 1013.2 |
| 20260503054556 | 56 | 190 | 0.0 | 3.0 | 0.00 | 0.03 | 0.03 | 94 | 1013.0 |
| 20260503053053 | 56 | 0 | 0.0 | 3.0 | 0.00 | 0.03 | 0.03 | 93 | 1012.8 |
| 20260503051559 | 56 | 109 | 0.0 | 2.0 | 0.00 | 0.03 | 0.03 | 93 | 1012.9 |
| 20260503050057 | 57 | 107 | 0.0 | 3.0 | 0.00 | 0.03 | 0.03 | 92 | 1013.3 |
| 20260503044558 | 57 | 101 | 0.0 | 2.0 | 0.00 | 0.03 | 0.03 | 92 | 1013.2 |
| 20260503043059 | 58 | 80 | 0.0 | 2.0 | 0.00 | 0.03 | 0.03 | 91 | 1013.4 |
| 20260503041556 | 59 | 0 | 0.0 | 0.0 | 0.00 | 0.03 | 0.03 | 89 | 1013.5 |
| 20260503040052 | 60 | 0 | 0.0 | 0.0 | 0.00 | 0.03 | 0.03 | 87 | 1013.5 |
| 20260503034553 | 61 | 0 | 0.0 | 2.0 | 0.00 | 0.03 | 0.03 | 86 | 1013.2 |
| 20260503033055 | 61 | 0 | 1.0 | 5.0 | 0.00 | 0.03 | 0.03 | 85 | 1013.2 |
| 20260503031550 | 62 | 121 | 1.0 | 6.0 | 0.00 | 0.03 | 0.03 | 82 | 1013.2 |
| 20260503030055 | 63 | 109 | 2.0 | 8.0 | 0.00 | 0.03 | 0.03 | 79 | 1013.2 |
| 20260503024600 | 64 | 109 | 1.0 | 7.0 | 0.00 | 0.03 | 0.03 | 79 | 1013.0 |
| 20260503023057 | 64 | 112 | 1.0 | 8.0 | 0.00 | 0.03 | 0.03 | 79 | 1012.9 |
| 20260503021558 | 65 | 0 | 0.0 | 4.0 | 0.00 | 0.03 | 0.03 | 80 | 1012.5 |
| 20260503020056 | 66 | 0 | 0.0 | 2.0 | 0.00 | 0.03 | 0.03 | 78 | 1012.3 |
| 20260503014621 | 66 | 0 | 0.0 | 2.0 | 0.00 | 0.03 | 0.03 | 76 | 1012.0 |
| 20260503013050 | 67 | 0 | 1.0 | 3.0 | 0.00 | 0.03 | 0.03 | 75 | 1012.0 |
| 20260503011601 | 67 | 189 | 0.0 | 3.0 | 0.00 | 0.03 | 0.03 | 76 | 1012.1 |
| 20260503010058 | 67 | 0 | 0.0 | 3.0 | 0.00 | 0.03 | 0.03 | 75 | 1012.0 |
| 20260503004600 | 67 | 0 | 0.0 | 2.0 | 0.00 | 0.03 | 0.03 | 76 | 1012.1 |
| 20260503003100 | 67 | 0 | 0.0 | 1.0 | 0.00 | 0.03 | 0.03 | 75 | 1012.1 |
| 20260503001554 | 66 | 0 | 0.0 | 2.0 | 0.00 | 0.03 | 0.03 | 75 | 1012.0 |
| 20260503000052 | 66 | 0 | 0.0 | 3.0 | 0.00 | 0.03 | 0.03 | 77 | 1012.1 |
| 20260502234555 | 66 | 0 | 0.0 | 1.0 | 0.00 | 0.03 | 0.03 | 76 | 1012.0 |
| 20260502233053 | 66 | 0 | 0.0 | 2.0 | 0.00 | 0.03 | 0.03 | 75 | 1012.0 |
| 20260502231553 | 66 | 0 | 0.0 | 3.0 | 0.00 | 0.03 | 0.03 | 75 | 1012.2 |
| 20260502230057 | 66 | 0 | 0.0 | 4.0 | 0.00 | 0.03 | 0.03 | 75 | 1012.3 |
| 20260502224608 | 65 | 0 | 0.0 | 5.0 | 0.00 | 0.03 | 0.03 | 76 | 1012.5 |
| 20260502223056 | 65 | 0 | 1.0 | 6.0 | 0.00 | 0.03 | 0.03 | 77 | 1012.9 |
| 20260502221552 | 64 | 0 | 1.0 | 4.0 | 0.00 | 0.03 | 0.03 | 74 | 1013.2 |
| 20260502220059 | 63 | 348 | 1.0 | 4.0 | 0.00 | 0.03 | 0.03 | 76 | 1013.4 |
| 20260502214553 | 64 | 315 | 0.0 | 4.0 | 0.00 | 0.03 | 0.03 | 76 | 1013.5 |
| 20260502213103 | 62 | 13 | 0.0 | 3.0 | 0.00 | 0.03 | 0.03 | 80 | 1013.6 |
| 20260502211617 | 62 | 325 | 0.0 | 5.0 | 0.00 | 0.03 | 0.03 | 78 | 1013.7 |
| 20260502210105 | 63 | 0 | 0.0 | 10.0 | 0.00 | 0.03 | 0.03 | 77 | 1014.0 |
| 20260502204550 | 61 | 265 | 1.0 | 6.0 | 0.00 | 0.03 | 0.03 | 83 | 1014.1 |
| 20260502203057 | 59 | 286 | 1.0 | 4.0 | 0.00 | 0.03 | 0.03 | 85 | 1014.3 |
| 20260502201559 | 59 | 18 | 1.0 | 3.0 | 0.00 | 0.03 | 0.03 | 83 | 1014.7 |